Time,TemperatureF,DewpointF,PressureIn,WindDirection,WindDirectionDegrees,WindSpeedMPH,WindSpeedGustMPH,Humidity,HourlyPrecipIn,Conditions,Clouds,dailyrainin,SoftwareType,DateUTC
2013-05-01 00:02:00,60.3,59.0,30.11,ENE,58,9.0,15.0,95,0.00,,,0.00,weatherlink.com 1.10,2013-05-01 04:02:00,
2013-05-01 00:17:00,60.3,59.0,30.11,NE,34,9.0,14.0,95,0.00,,,0.00,weatherlink.com 1.10,2013-05-01 04:17:00,
2013-05-01 00:32:00,60.0,59.0,30.11,NE,43,6.0,13.0,95,0.00,,,0.00,weatherlink.com 1.10,2013-05-01 04:32:00,
2013-05-01 00:47:00,59.5,58.0,30.11,NE,44,6.0,15.0,95,0.00,,,0.00,weatherlink.com 1.10,2013-05-01 04:47:00,
2013-05-01 01:02:00,59.5,58.0,30.11,ENE,57,10.0,11.0,96,0.00,,,0.00,weatherlink.com 1.10,2013-05-01 05:02:00,
2013-05-01 01:17:00,59.7,59.0,30.11,NE,44,8.0,9.0,96,0.00,,,0.00,weatherlink.com 1.10,2013-05-01 05:17:00,
2013-05-01 01:32:00,59.9,59.0,30.11,NNE,22,7.0,12.0,96,0.00,,,0.00,weatherlink.com 1.10,2013-05-01 05:32:00,
2013-05-01 01:47:00,60.0,59.0,30.10,NNE,15,9.0,11.0,96,0.00,,,0.00,weatherlink.com 1.10,2013-05-01 05:47:00,
2013-05-01 02:02:00,60.1,59.0,30.10,NNE,19,8.0,13.0,95,0.00,,,0.00,weatherlink.com 1.10,2013-05-01 06:02:00,
2013-05-01 02:17:00,60.1,59.0,30.10,North,357,7.0,13.0,95,0.00,,,0.00,weatherlink.com 1.10,2013-05-01 06:17:00,
2013-05-01 02:32:00,60.1,59.0,30.10,NNE,30,4.0,10.0,95,0.00,,,0.00,weatherlink.com 1.10,2013-05-01 06:32:00,
2013-05-01 02:47:00,60.3,59.0,30.10,NNE,22,5.0,11.0,95,0.00,,,0.00,weatherlink.com 1.10,2013-05-01 06:47:00,
2013-05-01 03:03:00,60.5,59.0,30.10,North,8,11.0,11.0,94,0.00,,,0.00,weatherlink.com 1.10,2013-05-01 07:03:00,
2013-05-01 03:17:00,60.5,59.0,30.10,North,356,5.0,11.0,94,0.00,,,0.00,weatherlink.com 1.10,2013-05-01 07:17:00,
2013-05-01 03:32:00,60.4,59.0,30.10,NE,37,8.0,11.0,94,0.00,,,0.00,weatherlink.com 1.10,2013-05-01 07:32:00,
2013-05-01 03:47:00,60.5,59.0,30.10,NE,50,7.0,10.0,94,0.00,,,0.00,weatherlink.com 1.10,2013-05-01 07:47:00,
2013-05-01 04:02:00,60.4,59.0,30.10,NE,34,7.0,9.0,94,0.00,,,0.00,weatherlink.com 1.10,2013-05-01 08:02:00,
2013-05-01 04:17:00,60.4,59.0,30.10,NNE,15,8.0,12.0,94,0.00,,,0.00,weatherlink.com 1.10,2013-05-01 08:17:00,
2013-05-01 04:32:00,60.4,59.0,30.10,NE,41,10.0,11.0,94,0.00,,,0.00,weatherlink.com 1.10,2013-05-01 08:32:00,
2013-05-01 04:47:00,60.6,59.0,30.10,NNE,30,5.0,11.0,94,0.00,,,0.00,weatherlink.com 1.10,2013-05-01 08:47:00,
2013-05-01 05:02:00,61.0,60.0,30.10,NE,34,6.0,13.0,95,0.00,,,0.00,weatherlink.com 1.10,2013-05-01 09:02:00,
2013-05-01 05:17:00,61.0,60.0,30.11,NE,39,7.0,10.0,95,0.00,,,0.00,weatherlink.com 1.10,2013-05-01 09:17:00,
2013-05-01 05:32:00,60.8,59.0,30.11,NE,41,6.0,12.0,95,0.00,,,0.00,weatherlink.com 1.10,2013-05-01 09:32:00,
2013-05-01 05:47:00,60.7,59.0,30.11,NNE,25,4.0,10.0,95,0.00,,,0.00,weatherlink.com 1.10,2013-05-01 09:47:00,
2013-05-01 06:02:00,60.6,59.0,30.11,NNE,19,9.0,12.0,95,0.00,,,0.00,weatherlink.com 1.10,2013-05-01 10:02:00,
2013-05-01 06:17:00,-999.0,-99.9,30.11,North,-999,-999.0,-999.0,-999,0.00,,,0.00,weatherlink.com 1.10,2013-05-01 10:17:00,
2013-05-01 06:32:00,-999.0,-99.9,30.12,North,-999,-999.0,-999.0,-999,0.00,,,0.00,weatherlink.com 1.10,2013-05-01 10:32:00,
2013-05-01 06:47:00,60.5,-99.9,30.13,NE,47,11.0,15.0,-999,0.00,,,0.00,weatherlink.com 1.10,2013-05-01 10:47:00,
2013-05-01 07:03:00,60.5,59.0,30.13,NNE,30,7.0,14.0,95,0.00,,,0.00,weatherlink.com 1.10,2013-05-01 11:03:00,
2013-05-01 07:18:00,60.7,59.0,30.14,NE,34,4.0,11.0,95,0.00,,,0.00,weatherlink.com 1.10,2013-05-01 11:18:00,
2013-05-01 07:33:00,60.7,60.0,30.14,NNE,25,10.0,11.0,96,0.00,,,0.00,weatherlink.com 1.10,2013-05-01 11:33:00,
2013-05-01 07:48:00,60.7,60.0,30.15,NE,44,7.0,13.0,96,0.00,,,0.00,weatherlink.com 1.10,2013-05-01 11:48:00,
2013-05-01 08:03:00,60.9,60.0,30.16,NNE,18,5.0,12.0,96,0.00,,,0.00,weatherlink.com 1.10,2013-05-01 12:03:00,
2013-05-01 08:18:00,60.9,60.0,30.16,NNE,18,8.0,13.0,96,0.00,,,0.00,weatherlink.com 1.10,2013-05-01 12:18:00,
2013-05-01 08:33:00,61.1,60.0,30.17,NE,37,6.0,14.0,96,0.00,,,0.00,weatherlink.com 1.10,2013-05-01 12:33:00,
2013-05-01 08:48:00,61.3,60.0,30.16,NNE,32,9.0,15.0,96,0.00,,,0.00,weatherlink.com 1.10,2013-05-01 12:48:00,
2013-05-01 09:03:00,62.2,61.0,30.16,NE,46,7.0,12.0,96,0.00,,,0.00,weatherlink.com 1.10,2013-05-01 13:03:00,
2013-05-01 09:18:00,62.0,61.0,30.16,NE,46,9.0,15.0,95,0.00,,,0.00,weatherlink.com 1.10,2013-05-01 13:18:00,
2013-05-01 09:33:00,62.1,61.0,30.17,NE,40,14.0,14.0,95,0.00,,,0.00,weatherlink.com 1.10,2013-05-01 13:33:00,
2013-05-01 09:48:00,62.5,61.0,30.17,NE,51,10.0,14.0,95,0.00,,,0.00,weatherlink.com 1.10,2013-05-01 13:48:00,
2013-05-01 10:03:00,63.0,61.0,30.17,NE,49,5.0,14.0,94,0.00,,,0.00,weatherlink.com 1.10,2013-05-01 14:03:00,
2013-05-01 10:18:00,63.2,61.0,30.18,NNE,22,8.0,15.0,93,0.00,,,0.00,weatherlink.com 1.10,2013-05-01 14:18:00,
2013-05-01 10:33:00,64.5,63.0,30.18,ENE,68,10.0,15.0,93,0.00,,,0.00,weatherlink.com 1.10,2013-05-01 14:33:00,
2013-05-01 10:48:00,64.1,62.0,30.19,ENE,72,12.0,15.0,91,0.00,,,0.00,weatherlink.com 1.10,2013-05-01 14:48:00,
2013-05-01 11:03:00,64.3,62.0,30.19,NE,34,5.0,15.0,93,0.00,,,0.00,weatherlink.com 1.10,2013-05-01 15:03:00,
2013-05-01 11:18:00,64.5,62.0,30.19,NNE,32,6.0,12.0,92,0.00,,,0.00,weatherlink.com 1.10,2013-05-01 15:18:00,
2013-05-01 11:33:00,66.4,64.0,30.19,NE,46,10.0,12.0,91,0.00,,,0.00,weatherlink.com 1.10,2013-05-01 15:33:00,
2013-05-01 11:48:00,67.9,65.0,30.19,SSW,208,3.0,10.0,89,0.00,,,0.00,weatherlink.com 1.10,2013-05-01 15:48:00,
2013-05-01 12:03:00,67.7,64.0,30.19,ESE,113,7.0,15.0,87,0.00,,,0.00,weatherlink.com 1.10,2013-05-01 16:03:00,
2013-05-01 12:18:00,68.4,65.0,30.19,SE,127,9.0,18.0,89,0.00,,,0.00,weatherlink.com 1.10,2013-05-01 16:18:00,
2013-05-01 12:33:00,67.9,64.0,30.19,ESE,118,15.0,17.0,87,0.00,,,0.00,weatherlink.com 1.10,2013-05-01 16:33:00,
2013-05-01 12:48:00,65.9,63.0,30.20,ESE,105,10.0,17.0,89,0.00,,,0.00,weatherlink.com 1.10,2013-05-01 16:48:00,
2013-05-01 13:03:00,65.3,63.0,30.20,SE,146,4.0,12.0,91,0.00,,,0.00,weatherlink.com 1.10,2013-05-01 17:03:00,
2013-05-01 13:18:00,65.4,63.0,30.20,SE,144,6.0,8.0,92,0.00,,,0.00,weatherlink.com 1.10,2013-05-01 17:18:00,
2013-05-01 13:33:00,66.4,64.0,30.20,SE,141,5.0,8.0,91,0.00,,,0.00,weatherlink.com 1.10,2013-05-01 17:33:00,
2013-05-01 13:48:00,68.1,65.0,30.20,ESE,107,5.0,13.0,88,0.00,,,0.00,weatherlink.com 1.10,2013-05-01 17:48:00,
2013-05-01 14:03:00,68.6,64.0,30.21,SE,129,4.0,14.0,86,0.00,,,0.00,weatherlink.com 1.10,2013-05-01 18:03:00,
2013-05-01 14:18:00,70.5,65.0,30.20,ESE,106,6.0,16.0,83,0.00,,,0.00,weatherlink.com 1.10,2013-05-01 18:18:00,
2013-05-01 14:33:00,70.1,64.0,30.21,ESE,119,11.0,14.0,82,0.00,,,0.00,weatherlink.com 1.10,2013-05-01 18:33:00,
2013-05-01 14:48:00,70.2,65.0,30.21,East,94,5.0,13.0,82,0.00,,,0.00,weatherlink.com 1.10,2013-05-01 18:48:00,
2013-05-01 15:03:00,66.7,63.0,30.21,NE,40,13.0,15.0,87,0.00,,,0.00,weatherlink.com 1.10,2013-05-01 19:03:00,
2013-05-01 15:18:00,68.0,63.0,30.21,ENE,74,13.0,13.0,83,0.00,,,0.00,weatherlink.com 1.10,2013-05-01 19:18:00,
2013-05-01 15:34:00,68.0,63.0,30.22,ENE,60,8.0,17.0,83,0.00,,,0.00,weatherlink.com 1.10,2013-05-01 19:34:00,
2013-05-01 15:49:00,67.1,63.0,30.22,NE,54,11.0,15.0,85,0.00,,,0.00,weatherlink.com 1.10,2013-05-01 19:49:00,
2013-05-01 16:04:00,67.5,63.0,30.22,NE,49,6.0,17.0,85,0.00,,,0.00,weatherlink.com 1.10,2013-05-01 20:04:00,
2013-05-01 16:19:00,68.1,63.0,30.22,ENE,74,8.0,14.0,84,0.00,,,0.00,weatherlink.com 1.10,2013-05-01 20:19:00,
2013-05-01 16:34:00,67.8,63.0,30.22,NE,53,7.0,18.0,85,0.00,,,0.00,weatherlink.com 1.10,2013-05-01 20:34:00,
2013-05-01 16:49:00,68.2,64.0,30.22,ENE,66,11.0,16.0,85,0.00,,,0.00,weatherlink.com 1.10,2013-05-01 20:49:00,
2013-05-01 17:04:00,67.0,63.0,30.22,NE,49,8.0,20.0,86,0.00,,,0.00,weatherlink.com 1.10,2013-05-01 21:04:00,
2013-05-01 17:19:00,66.6,63.0,30.22,NE,56,14.0,24.0,87,0.00,,,0.00,weatherlink.com 1.10,2013-05-01 21:19:00,
2013-05-01 17:34:00,66.1,63.0,30.23,NE,51,8.0,24.0,88,0.00,,,0.00,weatherlink.com 1.10,2013-05-01 21:34:00,
2013-05-01 17:49:00,65.5,62.0,30.23,East,88,15.0,26.0,89,0.00,,,0.00,weatherlink.com 1.10,2013-05-01 21:49:00,
2013-05-01 18:04:00,64.7,62.0,30.23,NNE,27,8.0,23.0,90,0.00,,,0.00,weatherlink.com 1.10,2013-05-01 22:04:00,
2013-05-01 18:19:00,64.3,62.0,30.23,ESE,105,11.0,21.0,91,0.00,,,0.00,weatherlink.com 1.10,2013-05-01 22:19:00,
2013-05-01 18:34:00,64.2,61.0,30.23,NE,47,9.0,24.0,90,0.00,,,0.00,weatherlink.com 1.10,2013-05-01 22:34:00,
2013-05-01 18:49:00,63.5,61.0,30.23,East,82,14.0,22.0,91,0.00,,,0.00,weatherlink.com 1.10,2013-05-01 22:49:00,
2013-05-01 19:04:00,63.3,61.0,30.24,NE,55,10.0,22.0,91,0.00,,,0.00,weatherlink.com 1.10,2013-05-01 23:04:00,
2013-05-01 19:19:00,63.5,61.0,30.24,ENE,72,14.0,22.0,91,0.00,,,0.00,weatherlink.com 1.10,2013-05-01 23:19:00,
2013-05-01 19:34:00,64.1,62.0,30.24,East,100,5.0,25.0,91,0.00,,,0.00,weatherlink.com 1.10,2013-05-01 23:34:00,
2013-05-01 19:49:00,64.2,62.0,30.24,NE,52,10.0,21.0,92,0.00,,,0.00,weatherlink.com 1.10,2013-05-01 23:49:00,
2013-05-01 20:04:00,63.8,62.0,30.24,ENE,75,7.0,18.0,93,0.00,,,0.00,weatherlink.com 1.10,2013-05-02 00:04:00,
2013-05-01 20:19:00,63.2,61.0,30.25,ENE,69,18.0,20.0,93,0.00,,,0.00,weatherlink.com 1.10,2013-05-02 00:19:00,
2013-05-01 20:34:00,62.7,61.0,30.25,ENE,72,16.0,22.0,94,0.00,,,0.00,weatherlink.com 1.10,2013-05-02 00:34:00,
2013-05-01 20:49:00,62.4,61.0,30.25,ENE,77,16.0,20.0,94,0.00,,,0.00,weatherlink.com 1.10,2013-05-02 00:49:00,
2013-05-01 21:04:00,62.1,60.0,30.26,ENE,78,11.0,19.0,94,0.00,,,0.00,weatherlink.com 1.10,2013-05-02 01:04:00,
2013-05-01 21:19:00,61.8,60.0,30.27,East,81,8.0,20.0,94,0.00,,,0.00,weatherlink.com 1.10,2013-05-02 01:19:00,
2013-05-01 21:34:00,61.7,60.0,30.27,ENE,57,11.0,18.0,94,0.00,,,0.00,weatherlink.com 1.10,2013-05-02 01:34:00,
2013-05-01 21:49:00,61.7,60.0,30.27,ENE,61,8.0,16.0,95,0.00,,,0.00,weatherlink.com 1.10,2013-05-02 01:49:00,
2013-05-01 22:04:00,61.7,60.0,30.28,ENE,63,12.0,18.0,95,0.00,,,0.00,weatherlink.com 1.10,2013-05-02 02:04:00,
2013-05-01 22:19:00,61.6,60.0,30.27,NE,34,14.0,21.0,95,0.00,,,0.00,weatherlink.com 1.10,2013-05-02 02:19:00,
2013-05-01 22:34:00,61.6,60.0,30.27,NE,56,17.0,18.0,95,0.00,,,0.00,weatherlink.com 1.10,2013-05-02 02:34:00,
2013-05-01 22:49:00,61.5,60.0,30.27,ENE,76,16.0,20.0,95,0.00,,,0.00,weatherlink.com 1.10,2013-05-02 02:49:00,
2013-05-01 23:04:00,61.5,60.0,30.27,ENE,67,17.0,19.0,95,0.00,,,0.00,weatherlink.com 1.10,2013-05-02 03:04:00,
2013-05-01 23:19:00,61.4,60.0,30.27,ENE,74,9.0,19.0,94,0.00,,,0.00,weatherlink.com 1.10,2013-05-02 03:19:00,
2013-05-01 23:34:00,61.6,60.0,30.26,ENE,71,9.0,21.0,95,0.00,,,0.00,weatherlink.com 1.10,2013-05-02 03:34:00,
2013-05-01 23:49:00,62.0,61.0,30.26,North,4,11.0,20.0,95,0.00,,,0.00,weatherlink.com 1.10,2013-05-02 03:49:00,